Погода в Ивангороде

Россия / Санкт-Петербург и Ленинградская область     59°22′35″N   28°13′23″E
темп.,
°C
ветер,
м/с
пор.,
м/с
влажн.,
%
обл.,
%
осадки,
мм/ч
давл.,
гПа
погр.,
м
7 августа, вс
вс700:00+15з4980100 0.1 1015448
03:00+14з48731 0.1 1017313
06:00+12юз37851 0.0 1018216
09:00+16зюз48660 0.0 1018805
12:00+19зсз57550 0.0 10191542
15:00+20зсз47533 0.0 10191105
18:00+18зсз245598 0.0 1020546
21:00+16юз126776 0.0 102035
8 августа, пн
пн800:00+12ю248290 0.0 102068
03:00+13юз2580100 0.1 1021114
06:00+13юз258599 0.1 1021147
09:00+17юз347288 0.5 1022472
12:00+19зсз2357100 0.4 10221325
15:00+19зсз2358100 0.5 1022663
18:00+17юз2473100 0.4 1022213
21:00+15ююв118040 0.8 102321
9 августа, вт
вт900:00+12юв229118 0.0 102419
03:00+10ююв11935 0.0 102518
06:00+11ююв11915 0.0 102515
09:00+17юв01696 0.0 1025250
12:00+21ссз234410 0.0 10261898
15:00+21ссз33395 0.0 10252098
18:00+21ссв224219 0.0 10261142
21:00+15всв24711 0.0 102777
10 августа, ср
ср1000:00+13юв22785 0.0 102729
03:00+11вюв12777 0.0 102718
06:00+11ююв22714 0.0 102731
09:00+18ююв22485 0.0 1027271
12:00+22ююз22374 0.0 10271523
15:00+23сз23374 0.0 10251963
18:00+22ссз2246100 0.0 1025382
21:00+16ссв11725 0.0 102514
11 августа, чт
чт1100:00+14ююв117494 0.0 102513
03:00+13ю227946 0.0 102525
06:00+12ю25836 0.0 102594
09:00+19юз3662100 0.0 1025433
12:00+23юз4641100 0.0 10241386
15:00+24юз464296 0.0 10231591
18:00+23ююз464787 0.0 10231134
21:00+18ююз387248 0.0 1023144